Volver al catálogo

BSAT-2A

ActivoComunicacionesGEO
NORAD 26720·PAYLOAD·🇯🇵 Japan

Lanzado Mar 8, 2001 desde Guiana Space Centre

Loading…

TLE

ActualizadoSource: Space-Track

Época: Sep 14, 2026, 08:18 UTC

1 26720U 01011B   26257.34631167 -.00000126  00000-0  00000-0 0  9993
2 26720  10.9191  46.6422 0006456 184.6634 170.7801  0.99176702 92856

Sigue BSAT-2A en tiempo real con AllMySat

Download on the App Store